• In Switzerland
  • List of Countries
  • For 7 days
  • Water Temperature
  • Satellite Maps
  • Weather Map
  • Weather Widgets
  • user-avatar
    Login

    Hourly Weather Juigalpa

    Today, 18 November, Saturday

    Time Temperature Precipitation Wind Pressure Humidity
    00:00 +24°C° 0 mm 2 mps 751 mmHg 86%
    01:00 +24°C° 0 mm 2 mps 751 mmHg 87%
    02:00 +23°C° 0 mm 2 mps 751 mmHg 88%
    03:00 +23°C° 0 mm 2 mps 751 mmHg 89%
    04:00 +23°C° 0 mm 2 mps 751 mmHg 90%
    05:00 +21°C° 0 mm 2 mps 751 mmHg 90%
    06:00 +21°C° 0 mm 2 mps 751 mmHg 91%
    07:00 +24°C° 0 mm 2 mps 751 mmHg 85%
    08:00 +26°C° 0 mm 2 mps 752 mmHg 79%
    09:00 +28°C° 0 mm 2 mps 752 mmHg 73%
    10:00 +29°C° 0 mm 2 mps 751 mmHg 70%
    11:00 +30°C° 0 mm 2 mps 751 mmHg 67%
    12:00 +30°C° 0 mm 2 mps 751 mmHg 64%
    13:00 +30°C° 0 mm 2 mps 750 mmHg 65%
    14:00 +30°C° 0 mm 2 mps 749 mmHg 66%
    15:00 +30°C° 0 mm 2 mps 749 mmHg 67%
    16:00 +29°C° 0 mm 2 mps 749 mmHg 72%
    17:00 +27°C° 0 mm 1 mps 749 mmHg 77%
    18:00 +26°C° 0 mm 1 mps 749 mmHg 82%
    19:00 +25°C° 0 mm 1 mps 750 mmHg 82%
    20:00 +25°C° 0 mm 1 mps 750 mmHg 81%
    21:00 +24°C° 0 mm 1 mps 751 mmHg 81%
    22:00 +24°C° 0 mm 1 mps 751 mmHg 82%
    23:00 +24°C° 0 mm 2 mps 751 mmHg 82%

    Tomorrow, 19 November, Sunday

    Time Temperature Precipitation Wind Pressure Humidity
    00:00 +23°C° 0 mm 2 mps 751 mmHg 83%
    01:00 +23°C° 0 mm 2 mps 750 mmHg 84%
    02:00 +23°C° 0 mm 1 mps 750 mmHg 85%
    03:00 +22°C° 0 mm 1 mps 750 mmHg 86%
    04:00 +22°C° 0 mm 1 mps 750 mmHg 87%
    05:00 +22°C° 0 mm 1 mps 751 mmHg 88%
    06:00 +22°C° 0 mm 1 mps 751 mmHg 89%
    07:00 +24°C° 0 mm 1 mps 751 mmHg 83%
    08:00 +26°C° 0 mm 1 mps 752 mmHg 78%
    09:00 +28°C° 0 mm 1 mps 752 mmHg 72%
    10:00 +29°C° 0 mm 2 mps 751 mmHg 70%
    11:00 +30°C° 0 mm 3 mps 751 mmHg 68%
    12:00 +31°C° 0 mm 3 mps 750 mmHg 66%
    13:00 +31°C° 0 mm 3 mps 749 mmHg 67%
    14:00 +31°C° 0 mm 3 mps 749 mmHg 68%
    15:00 +31°C° 0 mm 3 mps 748 mmHg 70%
    16:00 +30°C° 0 mm 3 mps 748 mmHg 74%
    17:00 +28°C° 0 mm 2 mps 749 mmHg 78%
    18:00 +27°C° 0 mm 2 mps 749 mmHg 83%
    19:00 +26°C° 0.1 mm 2 mps 750 mmHg 84%
    20:00 +26°C° 0.1 mm 2 mps 750 mmHg 85%
    21:00 +25°C° 0.1 mm 2 mps 751 mmHg 86%
    22:00 +25°C° 0.1 mm 2 mps 751 mmHg 88%
    23:00 +24°C° 0.1 mm 2 mps 751 mmHg 89%

    Day after tomorrow, 20 November, Monday

    Time Temperature Precipitation Wind Pressure Humidity
    00:00 +24°C° 0.1 mm 2 mps 751 mmHg 90%
    01:00 +24°C° 0.1 mm 2 mps 751 mmHg 91%
    02:00 +23°C° 0.1 mm 2 mps 751 mmHg 92%
    03:00 +23°C° 0.1 mm 2 mps 751 mmHg 93%
    04:00 +21°C° 0 mm 2 mps 751 mmHg 92%
    05:00 +21°C° 0 mm 2 mps 751 mmHg 91%
    06:00 +21°C° 0 mm 2 mps 751 mmHg 90%
    07:00 +24°C° 0 mm 3 mps 752 mmHg 84%
    08:00 +26°C° 0 mm 3 mps 752 mmHg 78%
    09:00 +28°C° 0 mm 4 mps 752 mmHg 71%
    10:00 +29°C° 0 mm 4 mps 752 mmHg 70%
    11:00 +30°C° 0 mm 5 mps 751 mmHg 69%
    12:00 +30°C° 0 mm 5 mps 751 mmHg 67%
    13:00 +30°C° 0 mm 5 mps 750 mmHg 69%
    14:00 +32°C° 0 mm 4 mps 749 mmHg 70%
    15:00 +32°C° 0 mm 4 mps 748 mmHg 71%
    16:00 +29°C° 0.2 mm 4 mps 749 mmHg 76%
    17:00 +28°C° 0.2 mm 3 mps 749 mmHg 81%
    18:00 +26°C° 0.2 mm 3 mps 750 mmHg 86%
    19:00 +26°C° 0.2 mm 3 mps 750 mmHg 87%
    20:00 +25°C° 0.2 mm 3 mps 751 mmHg 89%
    21:00 +25°C° 0.2 mm 3 mps 752 mmHg 90%
    22:00 +24°C° 0 mm 3 mps 752 mmHg 91%
    23:00 +24°C° 0 mm 3 mps 752 mmHg 91%

    21 November, Tuesday

    Time Temperature Precipitation Wind Pressure Humidity
    00:00 +24°C° 0 mm 2 mps 751 mmHg 91%
    01:00 +24°C° 0 mm 2 mps 751 mmHg 92%
    02:00 +23°C° 0 mm 2 mps 751 mmHg 92%
    03:00 +23°C° 0 mm 2 mps 750 mmHg 92%
    04:00 +23°C° 0 mm 2 mps 751 mmHg 92%
    05:00 +23°C° 0 mm 2 mps 751 mmHg 92%
    06:00 +21°C° 0 mm 2 mps 751 mmHg 92%
    07:00 +24°C° 0 mm 2 mps 752 mmHg 86%
    08:00 +26°C° 0 mm 2 mps 752 mmHg 79%
    09:00 +28°C° 0 mm 3 mps 753 mmHg 73%
    10:00 +29°C° 0 mm 3 mps 752 mmHg 71%
    11:00 +30°C° 0 mm 3 mps 752 mmHg 69%
    12:00 +31°C° 0 mm 3 mps 751 mmHg 66%
    13:00 +31°C° 0 mm 3 mps 750 mmHg 67%
    14:00 +31°C° 0 mm 2 mps 750 mmHg 68%
    15:00 +31°C° 0 mm 2 mps 749 mmHg 68%
    16:00 +29°C° 0.1 mm 2 mps 749 mmHg 73%
    17:00 +28°C° 0.1 mm 1 mps 750 mmHg 78%
    18:00 +27°C° 0.1 mm 1 mps 750 mmHg 83%
    19:00 +26°C° 0.1 mm 1 mps 751 mmHg 85%
    20:00 +26°C° 0.1 mm 1 mps 751 mmHg 87%
    21:00 +25°C° 0.1 mm 1 mps 752 mmHg 89%
    22:00 +25°C° 0 mm 1 mps 752 mmHg 89%
    23:00 +25°C° 0 mm 1 mps 752 mmHg 89%

    22 November, Wednesday

    Time Temperature Precipitation Wind Pressure Humidity
    00:00 +25°C° 0 mm 1 mps 751 mmHg 90%
    01:00 +25°C° 0.1 mm 1 mps 751 mmHg 90%
    02:00 +25°C° 0.1 mm 1 mps 751 mmHg 90%
    03:00 +25°C° 0.1 mm 1 mps 751 mmHg 91%
    04:00 +25°C° 0 mm 1 mps 751 mmHg 91%
    05:00 +25°C° 0 mm 1 mps 751 mmHg 92%
    06:00 +24°C° 0 mm 1 mps 752 mmHg 92%
    07:00 +26°C° 0 mm 1 mps 752 mmHg 88%
    08:00 +27°C° 0 mm 1 mps 752 mmHg 85%
    09:00 +28°C° 0 mm 1 mps 753 mmHg 81%
    10:00 +29°C° 0 mm 2 mps 752 mmHg 78%
    11:00 +29°C° 0 mm 2 mps 752 mmHg 76%
    12:00 +30°C° 0 mm 2 mps 751 mmHg 74%
    13:00 +30°C° 0 mm 2 mps 750 mmHg 74%
    14:00 +30°C° 0 mm 2 mps 750 mmHg 75%
    15:00 +30°C° 0 mm 2 mps 749 mmHg 75%
    16:00 +29°C° 0.3 mm 1 mps 749 mmHg 80%
    17:00 +28°C° 0.3 mm 1 mps 750 mmHg 84%
    18:00 +26°C° 0.3 mm 1 mps 750 mmHg 88%
    19:00 +26°C° 0.3 mm 1 mps 751 mmHg 89%
    20:00 +26°C° 0.3 mm 1 mps 751 mmHg 90%
    21:00 +26°C° 0.3 mm 1 mps 752 mmHg 91%
    22:00 +25°C° 0.5 mm 1 mps 752 mmHg 92%
    23:00 +25°C° 0.5 mm 1 mps 751 mmHg 92%

    23 November, Thursday

    Time Temperature Precipitation Wind Pressure Humidity
    00:00 +25°C° 0.5 mm 1 mps 751 mmHg 93%
    01:00 +24°C° 0.2 mm 1 mps 751 mmHg 93%
    02:00 +24°C° 0.2 mm 1 mps 751 mmHg 94%
    03:00 +24°C° 0.2 mm 1 mps 750 mmHg 94%
    04:00 +24°C° 0.1 mm 1 mps 751 mmHg 94%
    05:00 +24°C° 0.1 mm 1 mps 751 mmHg 94%
    06:00 +23°C° 0.1 mm 2 mps 751 mmHg 95%
    07:00 +25°C° 0 mm 2 mps 752 mmHg 90%
    08:00 +27°C° 0 mm 2 mps 752 mmHg 85%
    09:00 +28°C° 0 mm 2 mps 752 mmHg 81%
    10:00 +29°C° 0 mm 2 mps 752 mmHg 76%
    11:00 +30°C° 0 mm 3 mps 751 mmHg 72%
    12:00 +31°C° 0 mm 3 mps 750 mmHg 68%
    13:00 +31°C° 0 mm 3 mps 750 mmHg 68%
    14:00 +31°C° 0 mm 3 mps 749 mmHg 69%
    15:00 +31°C° 0 mm 3 mps 748 mmHg 69%
    16:00 +29°C° 0.1 mm 2 mps 749 mmHg 74%
    17:00 +28°C° 0.1 mm 2 mps 749 mmHg 78%
    18:00 +26°C° 0.1 mm 1 mps 750 mmHg 83%
    19:00 +26°C° 0 mm 2 mps 750 mmHg 83%
    20:00 +26°C° 0 mm 2 mps 751 mmHg 83%
    21:00 +25°C° 0 mm 2 mps 752 mmHg 83%
    22:00 +25°C° 0 mm 2 mps 751 mmHg 84%
    23:00 +25°C° 0 mm 2 mps 751 mmHg 85%
    Show more